Location: Tucson
(32.2217°N, 110.9265°W)
Time: 02:52:22
(UTC-07:00)

Tiros 1 - Pass Details

Date: 30 October 2021
Orbit: 630 x 663 km, 48.4° (Epoch: 07 December)

Event Time Altitude Azimuth Distance (km) Brightness Sun altitude
Rises 11:03:15 0° 310° (NW) 2,983 10.2 41.3°
Reaches altitude 10° 11:07:36 10° 347° (NNW) 2,063 9.4 41.6°
Maximum altitude 11:08:50 11° 2° (N) 2,002 9.4 41.7°
Drops below altitude 10° 11:10:04 10° 18° (NNE) 2,058 9.5 41.8°
Sets 11:14:23 0° 55° (NE) 2,958 10.4 42.0°
